Location: Chuathbaluk
(61.5726°N, 159.2454°W)
Time: 14:32:28
(UTC+00:00)

DELFI C3 - Pass Details

Date: 19 January 2021
Orbit: 531 x 550 km, 97.4° (Epoch: 04 March)

Event Time Altitude Azimuth Distance (km) Brightness Sun altitude
Exits shadow 04:44:43 29° 36° (NE) 1,041 ? -17.4°
Drops below altitude 10° 04:47:29 10° 356° (N) 1,843 ? -17.7°
Sets 04:49:47 0° 347° (NNW) 2,743 ? -18.0°
